MQT83M LFMN-LIPZ

Flight info

Callsign MQT83M
Flight time 0h 42m
Altitude 34000
Route BASIP DCT ANAKI DCT SUKOM/N0331F180 Q125 NIMUM Z43 OTGIG
Aircraft A320/M-SDE3FGHIRWY/LB1

Departure

Time 2026-05-05 21:48
Airport Nice-Côte d'Azur Airport (LFMN)

Arrival

Time 2026-05-05 22:31
Airport Venice Marco Polo Airport (LIPZ)
Time Latitude Longitude Altitude Speed Heading
2026-05-05 21:12 43.65835 7.20586 26 ft 0 kts 326°
2026-05-05 21:18 43.65834 7.20586 26 ft 0 kts 326°
2026-05-05 21:24 43.65835 7.20586 22 ft 0 kts 326°
2026-05-05 21:33 43.65818 7.20601 24 ft 4 kts 325°
2026-05-05 21:33 43.65800 7.20619 26 ft 4 kts 320°
2026-05-05 21:34 43.65786 7.20645 26 ft 4 kts 271°
2026-05-05 21:34 43.65793 7.20677 25 ft 4 kts 236°
2026-05-05 21:34 43.65804 7.20697 27 ft 0 kts 226°
2026-05-05 21:40 43.65803 7.20696 22 ft 0 kts 226°
2026-05-05 21:41 43.65802 7.20694 24 ft 0 kts 226°
2026-05-05 21:42 43.65787 7.20672 23 ft 6 kts 226°
2026-05-05 21:42 43.65747 7.20616 22 ft 11 kts 226°
2026-05-05 21:42 43.65685 7.20529 22 ft 15 kts 225°
2026-05-05 21:42 43.65624 7.20446 22 ft 13 kts 224°
2026-05-05 21:43 43.65547 7.20342 22 ft 17 kts 224°
2026-05-05 21:43 43.65451 7.20214 22 ft 20 kts 223°
2026-05-05 21:43 43.65343 7.20213 22 ft 16 kts 143°
2026-05-05 21:43 43.65270 7.20308 22 ft 3 kts 136°
2026-05-05 21:44 43.65264 7.20317 22 ft 0 kts 135°
2026-05-05 21:46 43.65262 7.20318 22 ft 1 kts 136°
2026-05-05 21:46 43.65242 7.20345 22 ft 7 kts 135°
2026-05-05 21:46 43.65198 7.20408 22 ft 12 kts 134°
2026-05-05 21:46 43.65128 7.20504 22 ft 16 kts 135°
2026-05-05 21:47 43.65039 7.20626 22 ft 11 kts 137°
2026-05-05 21:47 43.65014 7.20718 22 ft 8 kts 45°
2026-05-05 21:47 43.65083 7.20815 22 ft 32 kts 45°
2026-05-05 21:47 43.65421 7.21280 26 ft 108 kts 44°
2026-05-05 21:48 43.66100 7.22212 66 ft 163 kts 44°
2026-05-05 21:48 43.66825 7.23325 981 ft 157 kts 62°
2026-05-05 21:48 43.66994 7.24861 1720 ft 170 kts 98°
2026-05-05 21:48 43.66566 7.26380 2614 ft 172 kts 123°
2026-05-05 21:49 43.65801 7.27746 3276 ft 188 kts 129°
2026-05-05 21:49 43.64889 7.29140 3911 ft 203 kts 132°
2026-05-05 21:49 43.63895 7.30677 4476 ft 230 kts 130°
2026-05-05 21:49 43.63076 7.32684 5261 ft 246 kts 98°
2026-05-05 21:50 43.63333 7.34928 6834 ft 235 kts 69°
2026-05-05 21:50 43.63987 7.36949 7770 ft 250 kts 69°
2026-05-05 21:50 43.64675 7.39165 8973 ft 249 kts 69°
2026-05-05 21:50 43.65237 7.40996 9949 ft 252 kts 70°
2026-05-05 21:51 43.65903 7.43259 10933 ft 257 kts 71°
2026-05-05 21:51 43.66558 7.45597 11898 ft 265 kts 72°
2026-05-05 21:51 43.67211 7.48012 12862 ft 272 kts 73°
2026-05-05 21:51 43.67876 7.50526 13694 ft 290 kts 74°
2026-05-05 21:52 43.69103 7.55178 14479 ft 330 kts 74°
2026-05-05 21:52 43.69919 7.58267 14871 ft 354 kts 73°
2026-05-05 21:52 43.70783 7.61531 15471 ft 367 kts 73°
2026-05-05 21:53 43.71799 7.65333 16404 ft 375 kts 73°
2026-05-05 21:53 43.72413 7.67628 16977 ft 379 kts 74°
2026-05-05 21:53 43.73506 7.70987 17826 ft 389 kts 63°
2026-05-05 21:53 43.75084 7.74012 18604 ft 398 kts 51°
2026-05-05 21:54 43.76934 7.76897 19367 ft 404 kts 50°
2026-05-05 21:54 43.78811 7.79821 20127 ft 409 kts 50°
2026-05-05 21:54 43.80712 7.82791 20866 ft 415 kts 51°
2026-05-05 21:54 43.82631 7.85804 21571 ft 420 kts 51°
2026-05-05 21:55 43.84393 7.88579 22206 ft 425 kts 51°
2026-05-05 21:55 43.86355 7.91672 22939 ft 430 kts 51°
2026-05-05 21:55 43.88334 7.94812 23655 ft 435 kts 53°
2026-05-05 21:55 43.90062 7.98206 24228 ft 438 kts 63°
2026-05-05 21:56 43.91578 8.01890 24842 ft 443 kts 64°
2026-05-05 21:56 43.93105 8.05632 25437 ft 448 kts 64°
2026-05-05 21:56 43.94645 8.09418 26031 ft 453 kts 64°
2026-05-05 21:56 43.95843 8.12367 26469 ft 458 kts 64°
2026-05-05 21:57 43.97377 8.16125 27007 ft 463 kts 63°
2026-05-05 21:57 43.98969 8.20038 27550 ft 468 kts 64°
2026-05-05 21:57 44.00575 8.23996 28090 ft 473 kts 64°
2026-05-05 21:57 44.02197 8.27994 28614 ft 478 kts 64°
2026-05-05 21:58 44.03815 8.31991 29116 ft 483 kts 64°
2026-05-05 21:58 44.05202 8.35424 29525 ft 486 kts 64°
2026-05-05 21:58 44.06785 8.39342 30086 ft 489 kts 64°
2026-05-05 21:58 44.08459 8.43488 30537 ft 494 kts 64°
2026-05-05 21:59 44.10148 8.47674 30960 ft 499 kts 64°
2026-05-05 21:59 44.11854 8.51909 31375 ft 505 kts 63°
2026-05-05 21:59 44.13370 8.55685 31711 ft 510 kts 64°
2026-05-05 21:59 44.14887 8.59470 32219 ft 511 kts 64°
2026-05-05 22:00 44.16448 8.63370 32758 ft 512 kts 64°
2026-05-05 22:00 44.18180 8.67708 33356 ft 513 kts 64°
2026-05-05 22:00 44.19875 8.72026 33779 ft 517 kts 66°
2026-05-05 22:00 44.21321 8.76601 33947 ft 514 kts 71°
2026-05-05 22:01 44.22667 8.81140 33978 ft 498 kts 71°
2026-05-05 22:01 44.25001 8.89013 33970 ft 484 kts 71°
2026-05-05 22:02 44.27546 8.97668 33982 ft 481 kts 72°
2026-05-05 22:02 44.30067 9.06314 33975 ft 481 kts 72°
2026-05-05 22:03 44.32395 9.14305 33982 ft 480 kts 71°
2026-05-05 22:03 44.34898 9.22871 33981 ft 479 kts 71°
2026-05-05 22:04 44.37088 9.30381 33990 ft 479 kts 71°
2026-05-05 22:04 44.39593 9.39024 33999 ft 480 kts 71°
2026-05-05 22:05 44.42093 9.47683 33967 ft 480 kts 71°
2026-05-05 22:05 44.44372 9.55603 33994 ft 479 kts 71°
2026-05-05 22:06 44.46847 9.64254 34001 ft 479 kts 71°
2026-05-05 22:06 44.49299 9.72853 34006 ft 479 kts 71°
2026-05-05 22:07 44.51665 9.81144 33987 ft 479 kts 71°
2026-05-05 22:07 44.52863 9.85351 33676 ft 478 kts 71°
2026-05-05 22:07 44.54087 9.89659 33395 ft 476 kts 71°
2026-05-05 22:07 44.55308 9.93965 33134 ft 474 kts 71°
2026-05-05 22:08 44.56521 9.98262 32879 ft 474 kts 71°
2026-05-05 22:08 44.57499 10.01736 32668 ft 474 kts 71°
2026-05-05 22:08 44.58710 10.06051 32407 ft 474 kts 71°
2026-05-05 22:08 44.59902 10.10297 32150 ft 474 kts 72°
2026-05-05 22:09 44.61111 10.14594 31888 ft 473 kts 71°
2026-05-05 22:09 44.62283 10.18758 31652 ft 472 kts 71°
2026-05-05 22:09 44.63485 10.23026 31401 ft 469 kts 71°
2026-05-05 22:09 44.64649 10.27166 31133 ft 466 kts 71°
2026-05-05 22:10 44.65828 10.31386 30794 ft 461 kts 71°
2026-05-05 22:10 44.66990 10.35586 30278 ft 461 kts 72°
2026-05-05 22:10 44.68120 10.39681 29718 ft 459 kts 72°
2026-05-05 22:10 44.69184 10.43539 29262 ft 455 kts 72°
2026-05-05 22:11 44.70212 10.47279 28806 ft 452 kts 72°
2026-05-05 22:11 44.71296 10.51213 28368 ft 449 kts 72°
2026-05-05 22:11 44.72368 10.55101 27886 ft 447 kts 72°
2026-05-05 22:11 44.73489 10.59169 27400 ft 445 kts 72°
2026-05-05 22:12 44.74547 10.63005 26924 ft 443 kts 72°
2026-05-05 22:12 44.75631 10.66945 26395 ft 442 kts 71°
2026-05-05 22:12 44.76653 10.70669 25942 ft 440 kts 71°
2026-05-05 22:12 44.77380 10.73327 25594 ft 439 kts 72°
2026-05-05 22:13 44.78473 10.77328 25186 ft 435 kts 72°
2026-05-05 22:13 44.79541 10.81241 24639 ft 435 kts 72°
2026-05-05 22:13 44.80615 10.85177 24319 ft 428 kts 72°
2026-05-05 22:13 44.81634 10.88913 23919 ft 424 kts 72°
2026-05-05 22:14 44.82667 10.92714 23473 ft 418 kts 72°
2026-05-05 22:14 44.83384 10.95358 22829 ft 412 kts 72°
2026-05-05 22:14 44.84400 10.99103 21871 ft 405 kts 72°
2026-05-05 22:14 44.85361 11.02661 21382 ft 388 kts 72°
2026-05-05 22:15 44.86165 11.05635 20949 ft 375 kts 72°
2026-05-05 22:15 44.87078 11.09012 20455 ft 363 kts 72°
2026-05-05 22:15 44.87951 11.12255 19991 ft 352 kts 72°
2026-05-05 22:15 44.88779 11.15336 19544 ft 346 kts 72°
2026-05-05 22:16 44.89330 11.17390 19246 ft 346 kts 72°
2026-05-05 22:16 44.90007 11.19904 18887 ft 346 kts 72°
2026-05-05 22:16 44.90865 11.23093 18415 ft 350 kts 72°
2026-05-05 22:16 44.91563 11.25712 17997 ft 352 kts 72°
2026-05-05 22:17 44.92258 11.28327 17596 ft 353 kts 72°
2026-05-05 22:17 44.93124 11.31575 17124 ft 353 kts 71°
2026-05-05 22:17 44.93989 11.34814 16652 ft 353 kts 71°
2026-05-05 22:17 44.94788 11.37802 16216 ft 353 kts 71°
2026-05-05 22:18 44.95535 11.40605 15810 ft 353 kts 71°
2026-05-05 22:18 44.96275 11.43390 15407 ft 352 kts 71°
2026-05-05 22:18 44.97134 11.46629 14927 ft 352 kts 71°
2026-05-05 22:18 44.97986 11.49857 14468 ft 351 kts 71°
2026-05-05 22:19 44.98815 11.52998 13999 ft 350 kts 70°
2026-05-05 22:19 44.99805 11.55993 13210 ft 358 kts 55°
2026-05-05 22:19 45.01237 11.58673 12767 ft 352 kts 51°
2026-05-05 22:19 45.02727 11.61341 12036 ft 341 kts 51°
2026-05-05 22:20 45.04032 11.63643 11629 ft 325 kts 51°
2026-05-05 22:20 45.05396 11.66039 11209 ft 311 kts 51°
2026-05-05 22:20 45.06701 11.68342 10800 ft 308 kts 51°
2026-05-05 22:20 45.08040 11.70719 10367 ft 309 kts 51°
2026-05-05 22:21 45.09380 11.73104 9946 ft 310 kts 52°
2026-05-05 22:21 45.10666 11.75398 9501 ft 311 kts 51°
2026-05-05 22:21 45.12007 11.77792 9066 ft 310 kts 51°
2026-05-05 22:21 45.13345 11.80185 8632 ft 309 kts 51°
2026-05-05 22:22 45.14583 11.82402 8290 ft 306 kts 51°
2026-05-05 22:22 45.15871 11.84703 7881 ft 305 kts 51°
2026-05-05 22:22 45.17113 11.86922 7604 ft 299 kts 51°
2026-05-05 22:22 45.18308 11.89063 7310 ft 295 kts 51°
2026-05-05 22:23 45.19515 11.91230 6984 ft 293 kts 51°
2026-05-05 22:23 45.20773 11.93492 6630 ft 291 kts 51°
2026-05-05 22:23 45.21987 11.95677 6278 ft 289 kts 51°
2026-05-05 22:23 45.23030 11.97555 5968 ft 287 kts 51°
2026-05-05 22:24 45.24258 11.99774 5600 ft 285 kts 51°
2026-05-05 22:24 45.25499 12.02015 5060 ft 290 kts 51°
2026-05-05 22:24 45.26684 12.04149 4873 ft 282 kts 51°
2026-05-05 22:24 45.27822 12.06140 4747 ft 278 kts 46°
2026-05-05 22:25 45.29235 12.07989 4629 ft 272 kts 41°
2026-05-05 22:25 45.30421 12.09494 4528 ft 263 kts 41°
2026-05-05 22:25 45.31558 12.10940 4431 ft 253 kts 41°
2026-05-05 22:25 45.32839 12.12572 4301 ft 243 kts 41°
2026-05-05 22:26 45.34086 12.14160 4028 ft 239 kts 41°
2026-05-05 22:26 45.35319 12.15732 3719 ft 237 kts 41°
2026-05-05 22:26 45.36543 12.17294 3404 ft 235 kts 42°
2026-05-05 22:26 45.37756 12.18841 3096 ft 233 kts 42°
2026-05-05 22:27 45.38777 12.20146 2825 ft 231 kts 43°
2026-05-05 22:27 45.39967 12.21668 2522 ft 226 kts 43°
2026-05-05 22:27 45.41084 12.23094 2234 ft 210 kts 43°
2026-05-05 22:27 45.42109 12.24405 1996 ft 188 kts 43°
2026-05-05 22:28 45.43036 12.25591 1735 ft 170 kts 44°
2026-05-05 22:28 45.43867 12.26654 1510 ft 152 kts 45°
2026-05-05 22:28 45.44487 12.27441 1351 ft 141 kts 44°
2026-05-05 22:28 45.45188 12.28343 1162 ft 132 kts 44°
2026-05-05 22:29 45.45852 12.29197 1020 ft 126 kts 44°
2026-05-05 22:29 45.46492 12.30019 832 ft 122 kts 42°
2026-05-05 22:29 45.47029 12.30710 682 ft 122 kts 41°
2026-05-05 22:29 45.47649 12.31522 527 ft 119 kts 42°
2026-05-05 22:30 45.48255 12.32297 359 ft 117 kts 39°
2026-05-05 22:30 45.48782 12.32970 221 ft 116 kts 41°
2026-05-05 22:30 45.49316 12.33654 104 ft 115 kts 40°
2026-05-05 22:30 45.49889 12.34387 12 ft 101 kts 41°
2026-05-05 22:31 45.50293 12.34901 13 ft 42 kts 43°
2026-05-05 22:31 45.50484 12.35061 11 ft 27 kts
2026-05-05 22:31 45.50601 12.35053 12 ft 17 kts 319°
2026-05-05 22:31 45.50614 12.34881 13 ft 18 kts 272°
2026-05-05 22:32 45.50608 12.34705 14 ft 18 kts 265°
2026-05-05 22:32 45.50599 12.34512 15 ft 21 kts 266°
2026-05-05 22:32 45.50556 12.34363 15 ft 14 kts 234°
2026-05-05 22:32 45.50552 12.34304 16 ft 2 kts 272°
2026-05-05 22:33 45.50564 12.34301 17 ft 5 kts 349°
2026-05-05 22:33 45.50613 12.34254 14 ft 11 kts 276°
2026-05-05 22:33 45.50613 12.34214 14 ft 2 kts 269°
2026-05-05 22:33 45.50613 12.34203 14 ft 0 kts 269°